Regional Weather Roundup
Issued by NWS

Home | Current Version | Previous Version | Text Only | Print | Product List | Glossary On
Versions: 1 2 3 4 5 6 7 8 9 10 11 12 13 14 15 16 17 18 19 20 21 22 23 24 25 26 27 28 29 30 31 32 33 34 35 36 37 38 39 40 41 42 43 44 45 46 47 48 49 50
000
ASUS44 KJAN 281610
RWRMS

MISSISSIPPI HOURLY WEATHER ROUNDUP
NATIONAL WEATHER SERVICE JACKSON MS
1100 AM CDT TUE MAR 28 2017

NOTE: "FAIR: INDICATES FEW OR NO CLOUDS BELOW 12,000 FEET WITH NO
SIGNIFICANT WEATHER AND/OR OBSTRUCTIONS TO VISIBILITY.

MSZ001>002-007>008-010>013-018>021-025>028-034>036-281700-
NORTHWEST MISSISSIPPI

CITY           SKY/WX    TMP DP  RH WIND       PRES   REMARKS
BATESVILLE     FAIR      73  58  60 CALM      30.01S
CLEVELAND      FAIR      73  65  77 CALM      30.00S
GREENWOOD      CLOUDY    73  66  78 VRB5      30.00S
GREENVILLE     SUNNY     72  62  71 S6        30.00R
OLIVE BRANCH   MOSUNNY  N/A N/A N/A N7        30.03R
OXFORD         FAIR      72  55  56 CALM      30.03S
TUNICA         SUNNY     68  59  73 N7        30.03R
WINONA         CLOUDY    74  66  75 SW5       30.00S
$$

MSZ003>006-009-014>017-022>024-029>033-037>039-281700-
NORTHEAST MISSISSIPPI

CITY           SKY/WX    TMP DP  RH WIND       PRES   REMARKS
COLUMBUS AFB   CLOUDY    72  67  84 W3        30.00S
CORINTH        CLOUDY    61  57  88 NW5       30.03R
GOLDN TRIANGLE CLOUDY    73  63  68 NW3       29.98R
STARKVILLE     CLOUDY    73  64  73 W5        30.02S
TUPELO         MOSUNNY   70  60  70 CALM      30.01R
$$

MSZ040-058-281700-
CENTRAL MISSISSIPPI

CITY           SKY/WX    TMP DP  RH WIND       PRES   REMARKS
JACKSON INTL   PTSUNNY   76  67  73 SW8       30.01S
JACKSON HAWKNS PTSUNNY   75  65  70 W7        30.02S
MADISON        PTSUNNY   72  66  83 SW6       30.02R
MERIDIAN KEY   MOSUNNY   76  67  73 SW8       30.03S
MERIDIAN NAS   PTSUNNY   77  62  59 W10       30.03R
RAYMOND          N/A    N/A N/A N/A MISG        N/A
VICKSBURG VKS  PTSUNNY   75  68  78 S7        29.98S
$$

MSZ059>079-281700-
SOUTH MISSISSIPPI

CITY           SKY/WX    TMP DP  RH WIND       PRES   REMARKS
HATTIESBURG    CLOUDY    76  64  66 SW5       30.03S
MCCOMB         CLOUDY    76  66  71 S9        30.02S
NATCHEZ        NOT AVBL
PINE BELT      MOSUNNY   73  64  73 SW3       30.05R
$$

MSZ080>082-281700-
COASTAL MISSISSIPPI

CITY           SKY/WX    TMP DP  RH WIND       PRES   REMARKS
BAY ST LOUIS   MOSUNNY   79  63  57 MISG      30.04S
BILOXI         SUNNY     77  71  79 S13       30.04S
PASCAGOULA     PTSUNNY   79  67  66 SW9       30.05R
GULFPORT       PTSUNNY   77  68  73 S9        30.04R
$$

LAZ007>009-015>016-023>026-281700-
NORTHEAST LOUISIANA

CITY           SKY/WX    TMP DP  RH WIND       PRES   REMARKS
BASTROP        CLOUDY    74  69  84 SW7       30.00S
TALLULAH/VBURG MOSUNNY   76  66  71 VRB5      30.01R
VIDALIA        CLOUDY    76  69  78 S6        29.99S
$$



USA.gov is the U.S. government's official web portal to all federal, state and local government web resources and services.